Location: Newark
(45.4422°N, 16.2769°E)
Time: 03:03:40
(UTC+00:00)

Courier 1B Rocket - Pass Details

Date: 12 December 2019
Orbit: 920 x 1202 km, 28.2° (Epoch: 23 January)

Event Time Altitude Azimuth Distance (km) Brightness Sun altitude
Rises 08:06:42 0° 246° (WSW) 3,700 7.9 12.3°
Reaches altitude 10° 08:11:06 10° 220° (SW) 2,691 7.6 12.7°
Maximum altitude 08:13:48 13° 195° (SSW) 2,456 7.8 13.0°
Drops below altitude 10° 08:16:28 10° 169° (S) 2,635 8.7 13.3°
Sets 08:20:41 0° 143° (SE) 3,550 10.0 13.7°
